Showing default

OPS 9325 (IDSCS 12), 2652

Orbit data source: Space-Track

OPS 9325 (IDSCS 12), 2652 is a payload satellite owned by USAF SSD (US) in GEO that was launched on Wed, 18 Jan 1967 UTC via a TITAN IIIC launch vehicle from the Air Force Eastern Test Range (AFETR). Payload-class satellites include a variety of spacecraft equipped with specific instruments for various scientific and technological missions. These include communications satellites like Starlink; space stations such as the ISS; scientific satellites like the Hubble; Earth observation satellites from companies like Planet Labs, Umbra, and HawkEye 360; GPS; miniature CubeSats for education and research; and military/defense satellites.

Not visible in the next 10 days
Identifier
2652, 1967-003E
Orbit
GEO
Country
Flag of USUS
Related business
Manufacturer
Philco-Ford WDL
Mission
Non-operational spacecraft
Bus & Motor
IDCSP, Unknown motor
Mass
45 kg wet, 45 kg dry
Launch date (UTC)
1967-01-18 (59 years ago)
Launch vehicle
TITAN IIIC
Launch site
Air Force Eastern Test Range (AFETR)
Object type
Payload
Rocket body
Debris
Shape & HBR
Unknown
Radar Cross Section
Small (<0.1 m²)

Expand to show TLE details & history
Last TLE update: 6 hours ago

TLE from 6 hours ago
0 OPS 9325 (IDSCS 12)
1  2652U 67003E   25295.82615447 -.00000118  00000-0  00000+0 0  9991
2  2652   7.8107  47.9199 0037899  76.7195 283.6524  1.07944318137558
Epoch: 2025-10-22T19:49Z
TLE epoch observation values (Epoch: 2025-10-22T19:49:39.746Z)
Latitude
Longitude
78.93289°
Altitude
33,728.653 km
Speed
3.154 km/s
True Right ascension
03h 11m 22s
True Declination
0° 00' 00"
Sunlit
Object was in daylight at epoch
Visualization orbit readout
Latitude
Unknown
Longitude
Unknown
Altitude
Unknown
Speed
Unknown
Apparent Right ascension
Unknown
Apparent Declination
Unknown
Sunlit
N/A
Visualization observer readout
Local Sidereal Time
20:32:38
Azimuth
Unknown
Elevation
Unknown
Doppler factor
Unknown
Orbital elements
Apogee altitude
33,917.369 km
Perigee altitude
33,613.09 km
Semi-major axis
40,143.367 km
Eccentricity
0.00379
Inclination
7.8107°
RAAN
47.9199°
Arg. of periapsis
76.7195°
True anomaly
283.22991°
Mean anomaly
283.6524°
Eccentric anomaly
283.4412°
Mean motion
0.26985 °/min
Orbital period
1,334.07 mins
BSTAR
0
Loading maneuver chart data...
Computing Atmospheric mass density...
Loading historical data...
Loading historical data...
Loading historical data...
Loading historical data...
Loading historical data...
Loading historical data...
Loading historical data...

Documentation

Showing up to 5 results
|